When you browse on this site, cookies collect data to enhance your experience and personalize the content and advertising you see.
Visit our Privacy Policy to learn more. By continuing to use the site, you agree to this use of cookies and data.
  • în România
  • Lista ţărilor
  • Pe 7 zile
  • Temperatura apei
  • Hartă satelitară
  • Meteo pe hartă
  • Widget-uri
  • user-avatar
    Intrare

    Meteo pe oră la Arriate

    Astăzi, 18 Aprilie, Joi

    Timp Temperatura Precipitaţii Vânt Presiune Umiditate
    00:00 +11°C° 0 mm 1 m/s 690 mmHg 95%
    01:00 +11°C° 0.9 mm 1 m/s 690 mmHg 95%
    02:00 +11°C° 0.9 mm 1 m/s 689 mmHg 96%
    03:00 +10°C° 0.9 mm 1 m/s 689 mmHg 96%
    04:00 +10°C° 0.4 mm 1 m/s 689 mmHg 96%
    05:00 +10°C° 0.4 mm 1 m/s 689 mmHg 96%
    06:00 +9°C° 0.4 mm 1 m/s 689 mmHg 96%
    07:00 +10°C° 0.3 mm 1 m/s 689 mmHg 89%
    08:00 +11°C° 0.3 mm 1 m/s 690 mmHg 83%
    09:00 +12°C° 0.3 mm 1 m/s 690 mmHg 76%
    10:00 +13°C° 1.2 mm 1 m/s 690 mmHg 73%
    11:00 +13°C° 1.2 mm 2 m/s 690 mmHg 70%
    12:00 +14°C° 1.2 mm 2 m/s 690 mmHg 67%
    13:00 +14°C° 2 mm 2 m/s 689 mmHg 67%
    14:00 +13°C° 2 mm 2 m/s 689 mmHg 67%
    15:00 +13°C° 2 mm 2 m/s 689 mmHg 67%
    16:00 +13°C° 1.1 mm 2 m/s 689 mmHg 71%
    17:00 +12°C° 1.1 mm 2 m/s 689 mmHg 75%
    18:00 +12°C° 1.1 mm 2 m/s 689 mmHg 79%
    19:00 +10°C° 0.2 mm 2 m/s 689 mmHg 82%
    20:00 +9°C° 0.2 mm 2 m/s 689 mmHg 86%
    21:00 +9°C° 0.2 mm 1 m/s 689 mmHg 89%
    22:00 +9°C° 0 mm 1 m/s 689 mmHg 90%
    23:00 +8°C° 0 mm 1 m/s 689 mmHg 91%

    Mâine, 19 Aprilie, Vineri

    Timp Temperatura Precipitaţii Vânt Presiune Umiditate
    00:00 +8°C° 0 mm 1 m/s 689 mmHg 92%
    01:00 +8°C° 0.1 mm 1 m/s 689 mmHg 93%
    02:00 +8°C° 0.1 mm 1 m/s 689 mmHg 93%
    03:00 +7°C° 0.1 mm 1 m/s 689 mmHg 93%
    04:00 +6°C° 0.1 mm 0 m/s 689 mmHg 92%
    05:00 +6°C° 0.1 mm 0 m/s 689 mmHg 91%
    06:00 +6°C° 0.1 mm 0 m/s 689 mmHg 91%
    07:00 +9°C° 0 mm 1 m/s 689 mmHg 84%
    08:00 +11°C° 0 mm 1 m/s 690 mmHg 77%
    09:00 +12°C° 0 mm 1 m/s 690 mmHg 70%
    10:00 +13°C° 0.6 mm 1 m/s 690 mmHg 67%
    11:00 +14°C° 0.6 mm 1 m/s 690 mmHg 64%
    12:00 +15°C° 0.6 mm 1 m/s 690 mmHg 62%
    13:00 +15°C° 1.5 mm 1 m/s 690 mmHg 64%
    14:00 +14°C° 1.5 mm 1 m/s 690 mmHg 66%
    15:00 +14°C° 1.5 mm 2 m/s 689 mmHg 69%
    16:00 +14°C° 1.8 mm 1 m/s 689 mmHg 72%
    17:00 +13°C° 1.8 mm 1 m/s 689 mmHg 76%
    18:00 +13°C° 1.8 mm 1 m/s 689 mmHg 79%
    19:00 +12°C° 1.6 mm 1 m/s 689 mmHg 82%
    20:00 +11°C° 1.6 mm 1 m/s 690 mmHg 86%
    21:00 +9°C° 1.6 mm 0 m/s 690 mmHg 89%
    22:00 +10°C° 0.6 mm 1 m/s 690 mmHg 88%
    23:00 +10°C° 0.6 mm 1 m/s 690 mmHg 88%

    Poimâine, 20 Aprilie, Sâmbătă

    Timp Temperatura Precipitaţii Vânt Presiune Umiditate
    00:00 +10°C° 0.6 mm 1 m/s 690 mmHg 88%
    01:00 +9°C° 0 mm 1 m/s 689 mmHg 88%
    02:00 +9°C° 0 mm 1 m/s 689 mmHg 88%
    03:00 +8°C° 0 mm 1 m/s 688 mmHg 89%
    04:00 +8°C° 0 mm 1 m/s 688 mmHg 89%
    05:00 +7°C° 0 mm 0 m/s 688 mmHg 89%
    06:00 +6°C° 0 mm 0 m/s 688 mmHg 90%
    07:00 +8°C° 0 mm 0 m/s 689 mmHg 83%
    08:00 +10°C° 0 mm 0 m/s 689 mmHg 76%
    09:00 +13°C° 0 mm 1 m/s 690 mmHg 70%
    10:00 +14°C° 0.2 mm 1 m/s 690 mmHg 66%
    11:00 +15°C° 0.2 mm 1 m/s 690 mmHg 63%
    12:00 +16°C° 0.2 mm 2 m/s 690 mmHg 59%
    13:00 +16°C° 0.6 mm 2 m/s 690 mmHg 60%
    14:00 +16°C° 0.6 mm 2 m/s 689 mmHg 61%
    15:00 +16°C° 0.6 mm 2 m/s 689 mmHg 62%
    16:00 +15°C° 0.5 mm 2 m/s 689 mmHg 64%
    17:00 +15°C° 0.5 mm 1 m/s 689 mmHg 65%
    18:00 +15°C° 0.5 mm 1 m/s 689 mmHg 67%
    19:00 +13°C° 0.1 mm 1 m/s 689 mmHg 72%
    20:00 +12°C° 0.1 mm 1 m/s 689 mmHg 77%
    21:00 +10°C° 0.1 mm 1 m/s 689 mmHg 81%
    22:00 +10°C° 0 mm 1 m/s 688 mmHg 82%
    23:00 +10°C° 0 mm 1 m/s 688 mmHg 83%

    21 Aprilie, Duminică

    Timp Temperatura Precipitaţii Vânt Presiune Umiditate
    00:00 +9°C° 0 mm 0 m/s 688 mmHg 83%
    01:00 +8°C° 0 mm 0 m/s 687 mmHg 84%
    02:00 +8°C° 0 mm 0 m/s 687 mmHg 84%
    03:00 +8°C° 0 mm 0 m/s 686 mmHg 85%
    04:00 +8°C° 0 mm 0 m/s 686 mmHg 85%
    05:00 +9°C° 0 mm 1 m/s 686 mmHg 85%
    06:00 +8°C° 0 mm 1 m/s 686 mmHg 85%
    07:00 +10°C° 0 mm 1 m/s 687 mmHg 78%
    08:00 +12°C° 0 mm 1 m/s 687 mmHg 71%
    09:00 +14°C° 0 mm 1 m/s 688 mmHg 64%
    10:00 +15°C° 0.2 mm 1 m/s 688 mmHg 61%
    11:00 +16°C° 0.2 mm 1 m/s 688 mmHg 59%
    12:00 +16°C° 0.2 mm 2 m/s 688 mmHg 56%
    13:00 +16°C° 0.7 mm 2 m/s 687 mmHg 58%
    14:00 +16°C° 0.7 mm 1 m/s 687 mmHg 60%
    15:00 +16°C° 0.7 mm 1 m/s 686 mmHg 62%
    16:00 +15°C° 0.9 mm 1 m/s 686 mmHg 66%
    17:00 +15°C° 0.9 mm 1 m/s 686 mmHg 70%
    18:00 +15°C° 0.9 mm 1 m/s 686 mmHg 73%
    19:00 +14°C° 0.5 mm 1 m/s 686 mmHg 77%
    20:00 +13°C° 0.5 mm 1 m/s 686 mmHg 81%
    21:00 +11°C° 0.5 mm 1 m/s 686 mmHg 85%
    22:00 +11°C° 0.3 mm 1 m/s 686 mmHg 86%
    23:00 +11°C° 0.3 mm 1 m/s 686 mmHg 88%

    22 Aprilie, Luni

    Timp Temperatura Precipitaţii Vânt Presiune Umiditate
    00:00 +10°C° 0.3 mm 1 m/s 686 mmHg 89%
    01:00 +9°C° 0.3 mm 0 m/s 685 mmHg 90%
    02:00 +8°C° 0.3 mm 0 m/s 685 mmHg 91%
    03:00 +8°C° 0.3 mm 0 m/s 684 mmHg 92%
    04:00 +8°C° 0.1 mm 0 m/s 684 mmHg 92%
    05:00 +8°C° 0.1 mm 0 m/s 684 mmHg 92%
    06:00 +8°C° 0.1 mm 0 m/s 684 mmHg 92%
    07:00 +10°C° 0 mm 1 m/s 685 mmHg 87%
    08:00 +12°C° 0 mm 1 m/s 686 mmHg 82%
    09:00 +14°C° 0 mm 1 m/s 686 mmHg 77%
    10:00 +14°C° 0.6 mm 1 m/s 686 mmHg 75%
    11:00 +15°C° 0.6 mm 1 m/s 686 mmHg 73%
    12:00 +15°C° 0.6 mm 2 m/s 686 mmHg 72%
    13:00 +15°C° 1.2 mm 2 m/s 685 mmHg 72%
    14:00 +15°C° 1.2 mm 2 m/s 685 mmHg 73%
    15:00 +15°C° 1.2 mm 2 m/s 684 mmHg 73%
    16:00 +15°C° 1.2 mm 2 m/s 684 mmHg 74%
    17:00 +15°C° 1.2 mm 2 m/s 684 mmHg 75%
    18:00 +15°C° 1.2 mm 2 m/s 684 mmHg 76%
    19:00 +13°C° 0.3 mm 1 m/s 685 mmHg 80%
    20:00 +12°C° 0.3 mm 1 m/s 685 mmHg 84%
    21:00 +10°C° 0.3 mm 1 m/s 685 mmHg 88%
    22:00 +10°C° 0 mm 1 m/s 685 mmHg 87%
    23:00 +10°C° 0 mm 1 m/s 685 mmHg 87%

    23 Aprilie, Marţi

    Timp Temperatura Precipitaţii Vânt Presiune Umiditate
    00:00 +10°C° 0 mm 1 m/s 685 mmHg 87%
    01:00 +10°C° 0 mm 1 m/s 684 mmHg 87%
    02:00 +9°C° 0 mm 1 m/s 684 mmHg 87%
    03:00 +9°C° 0 mm 1 m/s 684 mmHg 87%
    04:00 +9°C° 0 mm 1 m/s 684 mmHg 86%
    05:00 +9°C° 0 mm 1 m/s 684 mmHg 86%
    06:00 +9°C° 0 mm 1 m/s 683 mmHg 85%
    07:00 +11°C° 0 mm 1 m/s 684 mmHg 79%
    08:00 +13°C° 0 mm 1 m/s 685 mmHg 72%
    09:00 +15°C° 0 mm 2 m/s 685 mmHg 65%
    10:00 +16°C° 0 mm 2 m/s 686 mmHg 60%
    11:00 +17°C° 0 mm 2 m/s 686 mmHg 56%
    12:00 +18°C° 0 mm 3 m/s 686 mmHg 52%
    13:00 +18°C° 0 mm 3 m/s 686 mmHg 50%
    14:00 +18°C° 0 mm 3 m/s 686 mmHg 48%
    15:00 +18°C° 0 mm 3 m/s 685 mmHg 47%
    16:00 +18°C° 0 mm 2 m/s 685 mmHg 52%
    17:00 +17°C° 0 mm 2 m/s 685 mmHg 57%
    18:00 +16°C° 0 mm 1 m/s 685 mmHg 62%
    19:00 +14°C° 0 mm 1 m/s 685 mmHg 66%
    20:00 +13°C° 0 mm 1 m/s 685 mmHg 70%
    21:00 +11°C° 0 mm 1 m/s 685 mmHg 74%
    22:00 +11°C° 0 mm 1 m/s 685 mmHg 74%
    23:00 +10°C° 0 mm 1 m/s 685 mmHg 74%
    Arată mai mult